Scammon Bay Airport
PACM : now visible

Airfield :











YOU CAN JOIN US ON...

 
LOGIN :

Register | Disclaimer

   EN    FR    IT 

 









Legend :    VFR   Marginal VFR   IFR   Intensive IFR   Very Intensive IFR
Visi :
Ceiling :
>= 8 km
>= 3000ft
5 to 8 km
1000 to 3000 ft
1500m to 5 km
500 to 1000 ft
800 to 1500m
200 to 500 ft
< 800m
< 200 ft
Symbols :   Thunderstorms  Fog  Heavy snow  Heavy precipitations  Wind > 20 kt






- Airport Elevation : 14 ft


PACM - Scammon Bay

CURRENT METAR :
  • 191256Z AUTO 22008KT 10SM FEW028 OVC039 08/04 A2978 RMK AO2 SLP079 T00780039 PNO $

EXPIRED METARs :
  • 191237Z AUTO 23010KT 10SM SCT027 OVC037 08/04 A2978 RMK AO2 PNO $
  • 191224Z AUTO 23009KT 10SM BKN027 OVC037 08/04 A2978 RMK AO2 PNO $
  • 191217Z AUTO 23009KT 10SM SCT027 OVC037 08/03 A2978 RMK AO2 PNO $
  • 191156Z AUTO 22007KT 10SM BKN027 OVC035 08/04 A2979 RMK AO2 SLP083 6//// 7//// T00780039 10078 20072 58004 PNO $
  • 191056Z AUTO 22007KT 10SM SCT024 SCT030 OVC040 08/05 A2979 RMK AO2 SLP084 T00780050 PNO $

TAF N/A
PAZA FIR / North America



MET'MAP, your aeronautical weather chart ! - Copyright ORBIFLY December 2007 - Disclaimer

ORBIFLY MET'MAP TEAM :

Programming & Development : Alexandra Zaïnal
Concept & original design : Baudouin d'Aumeries
Assistance for programming : Marc-Olivier Méhu
Technical & hardware support : Manuel Goepfert

Contact : metmap@orbifly.com




SOURCES & CREDITS :

   NOAA       Earth
Advisory